Left ArrowRight Arrow

Hourly Observations for March 4, 2020

Temp ( °F °C ) Dew Point ( °F °C ) Humidity (%) Winds ( mph kmh ) Pressure ( in mb ) Visibility ( mi km ) Precip ( " mm )
12:53 am 00:53 Clear 37 2.8 14 -10 39 39 SW 12 19 29.86 1011 10 16 0.00 0.00
1:53 am 01:53 Clear 43 6.1 13 -10.6 29 29 WSW 13 20 29.82 1010 10 16 0.00 0.00
2:53 am 02:53 Clear 43 6.1 11 -11.7 27 27 WSW 16 26 29.78 1009 10 16 0.00 0.00
3:53 am 03:53 Clear 42 5.6 11 -11.7 28 28 S 8 13 29.77 1008 10 16 0.00 0.00
4:53 am 04:53 Clear 45 7.2 8 -13.3 22 22 WNW 5 7 29.74 1007 10 16 0.00 0.00
5:36 am 05:36 Clear 40 4.4 15 -9.4 36 36 S 17 28 29.77 1008 10 16 0.00 0.00
5:53 am 05:53 Clear 41 5 15 -9.4 35 35 S 12 19 29.77 1008 10 16 0.00 0.00
6:53 am 06:53 Sunny 48 8.9 8 -13.3 19 19 WSW 15 24 29.74 1007 10 16 0.00 0.00
7:53 am 07:53 Sunny 41 5 16 -8.9 36 36 SSW 12 19 29.78 1009 10 16 0.00 0.00
8:53 am 08:53 Sunny 43 6.1 15 -9.4 32 32 NE 5 7 29.79 1009 10 16 0.00 0.00
9:53 am 09:53 Sunny 46 7.8 15 -9.4 29 29 VRB 3 6 29.77 1008 10 16 0.00 0.00
10:53 am 10:53 Mostly Sunny 47 8.3 21 -6.1 36 36 NE 12 19 29.79 1009 10 16 0.00 0.00
11:53 am 11:53 Sunny 51 10.6 18 -7.8 27 27 Calm 29.76 1008 10 16 0.00 0.00
12:53 pm 12:53 Sunny 49 9.4 20 -6.7 32 32 W 18 30 29.76 1008 10 16 0.00 0.00
1:53 pm 13:53 Sunny 50 10 21 -6.1 32 32 WSW 12 19 29.74 1007 10 16 0.00 0.00
2:53 pm 14:53 Sunny 49 9.4 21 -6.1 33 33 WNW 22 35 29.75 1007 10 16 0.00 0.00
3:53 pm 15:53 Partly Cloudy 47 8.3 20 -6.7 34 34 W 22 35 29.75 1007 10 16 0.00 0.00
4:42 pm 16:42 Partly Cloudy 37 2.8 26 -3.3 65 65 NNW 36 57 29.91 1013 10 16 0.00 0.00
4:53 pm 16:53 Mostly Cloudy 34 1.1 27 -2.8 76 76 NNW 30 48 29.88 1012 10 16 0.00 0.00
5:33 pm 17:33 Mostly Cloudy with Light Snow 30 -1.1 26 -3.3 85 85 NNW 26 43 30.06 1018 3 4 0.00 0.00
5:40 pm 17:40 Windy with Snow Likely 30 -1.1 26 -3.3 85 85 NNW 23 37 30.07 1018 1 2 0.00 0.00
5:43 pm 17:43 Windy with Snow Likely 30 -1.1 27 -2.8 88 88 NNW 22 35 30.08 1019 1 1 0.00 0.00
5:53 pm 17:53 Windy with Snow Likely 30 -1.1 26 -3.3 85 85 NNW 23 37 30.00 1016 1 1 0.00 0.00
5:58 pm 17:58 Windy with Snow Likely 30 -1.1 26 -3.3 85 85 NNW 21 33 30.09 1019 1 2 0.00 0.00
6:03 pm 18:03 Windy with Snow Likely 29 -1.7 25 -3.9 85 85 NNW 25 41 30.10 1019 2 3 0.00 0.00
6:27 pm 18:27 Windy with Snow Likely 28 -2.2 24 -4.4 85 85 NNW 25 41 30.14 1020 3 5 0.00 0.00
6:41 pm 18:41 Windy with Snow Likely 28 -2.2 24 -4.4 85 85 NNW 23 37 30.16 1021 2 3 0.00 0.00
6:47 pm 18:47 Windy with Snow Likely 28 -2 25 -4 86 86 NNW 20 31 30.16 1021 1 2 0.00 0.00
6:53 pm 18:53 Windy with Snow Likely 28 -2.2 24 -4.4 85 85 NNW 25 41 30.05 1018 1 2 0.00 0.00
6:57 pm 18:57 Windy with Snow Likely 28 -2.2 24 -4.4 85 85 NW 23 37 30.18 1022 1 1 0.00 0.00
7:06 pm 19:06 Mostly Cloudy with Heavy Snow 28 -2.2 24 -4.4 85 85 NW 17 28 30.18 1022 0 0 0.00 0.00
7:26 pm 19:26 Mostly Cloudy with Light Snow 28 -2.2 24 -4.4 85 85 NNW 21 33 30.19 1022 1 2 0.01 0.25
7:31 pm 19:31 Windy with Snow Likely 28 -2.2 24 -4.4 85 85 NNW 21 33 30.19 1022 2 3 0.01 0.25
7:40 pm 19:40 Cloudy with Light Snow 28 -2.2 23 -5 81 81 NNW 17 28 30.20 1023 2 3 0.01 0.25
7:49 pm 19:49 Mostly Cloudy with Light Snow 28 -2 25 -4 86 86 NW 17 28 30.20 1023 1 1 0.01 0.25
7:53 pm 19:53 Mostly Cloudy with Snow 28 -2.2 24 -4.4 85 85 NNW 17 28 30.11 1020 1 1 0.01 0.25
8:04 pm 20:04 Cloudy with Light Snow 27 -2.8 24 -4.4 89 89 NNW 15 24 30.23 1024 1 2 0.00 0.00
8:15 pm 20:15 Cloudy with Light Snow 27 -2.8 24 -4.4 89 89 NNW 15 24 30.22 1023 1 2 0.00 0.00
8:27 pm 20:27 Mostly Cloudy with Light Snow 27 -2.8 24 -4.4 89 89 NNW 14 22 30.24 1024 1 2 0.00 0.00
8:30 pm 20:30 Cloudy with Light Snow 27 -2.8 24 -4.4 89 89 NNW 14 22 30.24 1024 1 1 0.00 0.00
8:45 pm 20:45 Mostly Cloudy with Light Snow 27 -2.8 24 -4.4 89 89 NNW 18 30 30.25 1024 1 1 0.01 0.25
8:53 pm 20:53 Mostly Cloudy with Light Snow 27 -2.8 24 -4.4 89 89 N 20 31 30.13 1020 1 2 0.01 0.25
9:08 pm 21:08 Cloudy with Light Snow 27 -2.8 24 -4.4 89 89 N 18 30 30.26 1025 1 2 0.00 0.00
9:18 pm 21:18 Cloudy with Light Snow 27 -2.8 24 -4.4 89 89 N 15 24 30.27 1025 1 2 0.00 0.00
9:36 pm 21:36 Cloudy with Light Snow 27 -2.8 24 -4.4 89 89 N 15 24 30.28 1025 2 3 0.00 0.00
9:40 pm 21:40 Cloudy with Light Snow 27 -2.8 24 -4.4 89 89 N 15 24 30.27 1025 2 3 0.00 0.00
9:53 pm 21:53 Windy with Snow Likely 27 -2.8 24 -4.4 89 89 N 21 33 30.15 1021 3 4 0.00 0.00
10:06 pm 22:06 Windy with Snow Likely 27 -2.8 24 -4.4 89 89 N 23 37 30.28 1025 2 3 0.00 0.00
10:16 pm 22:16 Windy with Snow Likely 27 -2.8 24 -4.4 89 89 N 20 31 30.29 1026 1 2 0.00 0.00
10:23 pm 22:23 Windy with Snow Likely 27 -2.8 24 -4.4 89 89 N 21 33 30.29 1026 2 3 0.00 0.00
10:31 pm 22:31 Windy with Snow Likely 28 -2.2 24 -4.4 85 85 N 22 35 30.28 1025 3 5 0.00 0.00
10:53 pm 22:53 Cloudy with Light Wintry Mix 28 -2.2 23 -5 81 81 N 21 33 30.17 1022 9 14 0.00 0.00
11:53 pm 23:53 Cloudy 29 -1.7 17 -8.3 61 61 NNW 25 41 30.17 1022 10 16 0.00 0.00

Powered by Vaisala Xweather